Aeroporto :







RITROVATECI SU...

 
LOGIN :

Iscrizione | Disclaimer

   EN    FR    IT 

 









Sommario :    VFR   VFR Marginale   IFR   IFR Intensivo   IFR Molto Intensivo
Visibilità : 
Base nubi : 
>= 8 km
>= 3000ft
5 / 8 km
1000 / 3000 ft
1500m / 5 km
500 / 1000 ft
800 / 1500m
200 / 500 ft
< 800m
< 200 ft
Simboli :   Temporali  Nebbia  Neve Forte  Precipitazioni Forti  Vento > 20 kt






- Altitudine del aeroporto : 235 ft
- Codice IATA : CCS


SVMI - Simon Bolivar

ULTIMO METAR :
  • 230502Z AUTO 29001KT NCD ///// Q1012

METARs OBSOLETI :
  • 230500Z 14006KT 9999 BKN016 24/21 Q1009
  • 230402Z AUTO 27003KT NCD ///// Q1013
  • 230300Z 07009KT 9999 OVC016 27/19 Q1010

TAF TAF SVMI
Valido dal 23 a 06 ore il 24 a 06 ore UTC


230400Z 2306/2406 00000KT 9999 SCT016 TX34/2318Z TN24/1908Z
BECMG 2306/2310 00000KT 9999 FEW016
FIR SVZM / Sudamerica



MetMap, La meteo Aeronautica in un colpo d'occhio ! - Copyright ORBIFLY Dicembre 2007 - Disclaimer

ORBIFLY MET'MAP TEAM :

Programmazione e sviluppo : Alexandra Zaïnal
Concezione : Baudouin d'Aumeries
Aiuto per la programmazione : Marc-Olivier Méhu
Supporto tecnico e logistico : Manuel Goepfert
Aiuto per la traduzione : Arnaldo La Scala

Contatto : metmap@orbifly.com




FONTI E CREDITI :

   NOAA